Simultaneous Nadir Overpasses (SNOs) Predictions

Prediction of SNOs between METOP-A and TERRA Satellite Orbit:

Table of predicted SNOs for the next 14.0 days since TLE Epoch: 5/8/2021
Index Date (METOP-A) Time (METOP-A) Lat,Lon (METOP-A) SZA (METOP-A ) Date (TERRA) Time (TERRA) Lat,Lon (TERRA) SZA (TERRA ) Distance(km) Time Diff (sec)
1 05/10/2021 11:10:38 81.32, 58.98 66.49 05/10/2021 11:10:49 81.32, 58.81 66.48 2.88 11
2 05/10/2021 12:01:19 -81.32,-133.76 113.53 05/10/2021 12:00:16 -81.31,-133.66 113.55 2.01 63
3 05/13/2021 05:54:24 -81.39, -44.10 114.40 05/13/2021 05:55:38 -81.24, -43.83 114.44 17.59 74
4 05/13/2021 06:44:59 81.32, 125.41 65.79 05/13/2021 06:45:00 81.33, 125.39 65.80 1.39 1
5 05/13/2021 07:35:40 -81.32, -67.30 114.23 05/13/2021 07:34:28 -81.30, -67.42 114.29 2.72 72
6 05/16/2021 01:28:41 -81.32, 24.27 114.89 05/16/2021 01:29:46 -81.33, 24.24 114.86 1.15 65
7 05/16/2021 02:19:22 81.33,-168.55 65.09 05/16/2021 02:19:13 81.31,-168.45 65.09 2.37 9
8 05/18/2021 21:03:04 -81.33, 90.32 115.55 05/18/2021 21:03:59 -81.31, 90.40 115.53 2.30 55
9 05/18/2021 21:53:43 81.31,-101.77 64.50 05/18/2021 21:53:25 81.32,-101.94 64.47 2.98 18
10 05/21/2021 16:37:25 -81.33, 156.73 116.14 05/21/2021 16:38:10 -81.32, 156.90 116.10 3.08 45



Historial Predications of SNOs between METOP-A and TERRA
